To NAV CANADA Home Page Login to a new session Search on AWWS site Feedback and Comments Disclaimer Vers la page française équivalente Tips FAQ What's new on the site To the Forecasts and Observations / NOTAM section To "File a Flight Plan" website Publications and other links Update of the User's profile FIC Telephone Numbers My Weather Data Folder Route Weather Data Regional Weather Data Local Weather Data To the Forecasts and Observations / NOTAM section
Request Generated 05/25/2015 at 15:07:41 UTC . Weather information available at that time is displayed.

METAR/TAF

DAWSON CITY/YT    

METAR CYDA 251500Z VRB02KT 20SM BKN035 BKN210 12/06 A2989 RMK SC6CI1
SLP128=
METAR CYDA 251400Z 09002KT 20SM BKN035 OVC210 10/05 A2988 RMK SC7CI1
CLIMAT 28.6/7.5/TR SLP126=
LWIS CYDA 251300Z AUTO 00000KT 08/06 A2987=

*** REMARK        : Forecast period has ended; this was the last TAF issued
*** REMARQUE : La période de prévision est échue; ceci était le dernier TAF qui a été émis
TAF CYDA 241738Z 2418/2423 VRB03KT P6SM FEW050 FEW140
FM242100 07007KT P6SM SCT080 PROB40 2422/2423 VRB15G25KT 6SM TSRA
BKN080CB
RMK NXT FCST WILL BE ISSUED AT 251545Z=
Your time UTC time
Weather data provided by Environment Canada and NAV CANADA